Weather in Kintanovo

Russia / Yaroslavl Oblast     58°22′18″N   40°57′05″E
В апреле 2022 года жителям России запретили посещать сайт meteo.paraplan.net по решению Генеральной прокуратуры. Аудитория сайта уменьшилась в 10 раз. Владельцы сайта не видят смысла в поддержке погодного сервера в таких условиях. Сайт будет закрыт в октябре.
temp.,
°C
wind,
m/s
gust,
m/s
humid.,
%
clouds,
%
prec.,
mm/h
press.,
hPa
HPBL,
m
4 october, tue
tue400:00+9sse5128219 0.0 1009866
03:00+8se413875 0.0 1011629
06:00+8se514875 0.0 1012640
09:00+11se514760 0.0 1012759
12:00+14sse611635 0.0 10121182
15:00+15sse6116319 0.0 10131270
18:00+12sse51277100 0.6 1013997
21:00+11se51284100 2.1 1012803
5 october, wed
wed500:00+11se41290100 0.7 1012727
03:00+11se51190100 1.1 1011777
06:00+10s3892100 0.8 1011474
09:00+9ssw2588100 1.3 1011479
12:00+9sw248295 0.7 1012703
15:00+9ssw2581100 0.9 1012702
18:00+7sw1189100 0.1 101331
21:00+6wsw129181 0.1 101359
6 october, thu
thu600:00+5nw229497 0.0 101338
03:00+6wnw2492100 0.1 1013136
06:00+6wnw259497 0.0 1014176
09:00+7wnw248437 0.0 1015309
12:00+10w236923 0.0 1015877
15:00+10wsw346392 0.0 1015858
18:00+6ssw25844 0.0 1015102
21:00+6s3119084 0.0 1013298
7 october, fri
fri700:00+8ssw41287100 0.0 1010543
03:00+9sw41193100 0.3 1008729
06:00+10w5128651 1.6 1009884
09:00+10w51083100 1.8 10101081
12:00+10wsw5118350 0.0 10111011
15:00+11w71178100 1.2 10111271
18:00+9w5128476 2.4 1012990
21:00+9w5138647 2.6 1015924
8 october, sat
sat800:00+9w512845 0.1 1017781
03:00+7w3109283 0.1 1018471
06:00+7sw379681 0.0 1019250
09:00+8sw3991100 0.0 1019350
12:00+12sw497674 0.0 1019676
15:00+13sw48747 0.0 1017944
18:00+10sw31185100 0.0 1017447
21:00+9sw4138699 0.0 1016537